Wind_Speed
2 2 3 3 4 4 5 6 6 6 7 7 7 7 7 7 7 7 7 7 6 6 6 5 5 5 5 6 6 6 6 5 5 5 5 5 5 5 5 5 5 4 4
4 4 5 4 5 6 7 7 7 7 8 8 9 9 9 8 8 8 8 8 8 7 7 7 7 7 7 7 7 7 7 7 7 7 6 6 6 6 6 6 6 6 6
6 6 6 6 7 7 8 8 8 9 9 10 10 10 10 9 9 9 9 9 9 8 8 8 8 8 8 8 8 9 9 9 8 8 8 8 8 8 8 8 7 7 7
7 7 8 8 9 9 10 10 10 10 11 11 11 11 11 11 10 10 10 10 10 9 9 9 9 10 10 10 10 10 10 10 10 10 10 9 9 9 9 9 9 9 9
9 9 10 10 10 11 12 12 12 12 13 12 12 12 12 12 12 11 11 11 11 10 10 10 11 11 11 12 12 12 12 12 12 12 12 11 11 11 11 11 11 11 10
11 11 12 12 12 13 14 14 14 14 14 14 13 13 14 13 13 12 12 12 12 12 12 12 12 12 12 13 13 13 13 13 13 13 13 13 12 12 13 13 13 13 12
12 12 13 13 14 14 15 15 15 15 15 15 15 15 15 15 14 14 14 14 14 14 14 14 14 13 13 13 14 14 14 14 14 14 14 14 14 14 14 14 14 15 14
13 13 13 14 15 15 16 16 16 16 17 17 17 16 16 16 16 15 15 15 15 15 15 15 15 15 15 15 15 15 15 16 17 16 15 16 16 16 16 16 16 17 17
14 15 15 15 15 16 17 17 17 18 18 18 18 18 17 17 17 17 16 16 16 16 16 17 17 17 17 17 17 17 17 18 18 18 18 17 17 18 19 18 19 18 19
16 16 16 17 17 17 18 18 19 19 19 19 19 19 19 18 18 18 18 18 18 18 18 18 18 18 18 18 18 18 19 19 19 20 20 20 20 20 21 21 20 20 20
17 17 18 18 19 18 18 19 20 20 20 20 20 20 20 20 20 19 20 20 20 19 19 19 19 19 20 20 20 20 21 22 22 21 21 21 22 22 22 22 21 22 22
18 19 19 19 20 19 19 20 20 21 22 22 21 21 21 22 21 20 20 21 21 20 20 20 21 21 21 21 21 22 22 23 23 23 23 23 23 23 23 24 23 23 23
19 20 20 19 19 20 20 20 21 21 22 22 21 22 23 22 21 21 21 21 22 21 22 22 22 23 23 23 23 23 23 23 24 25 24 24 24 24 24 24 25 24 24
19 20 20 20 20 21 21 21 22 22 23 23 23 23 23 23 23 23 23 23 23 23 23 23 23 24 25 25 24 25 24 25 25 26 26 26 25 26 26 26 26 26 26
20 21 21 20 21 22 22 22 22 23 23 23 23 24 24 24 24 24 24 24 24 24 25 25 25 25 26 26 26 25 26 26 27 27 27 27 27 27 27 27 27 28 27
20 21 21 21 22 23 23 22 22 22 23 23 23 24 25 25 25 25 25 25 25 25 26 27 28 27 26 27 27 27 27 27 27 27 27 27 27 28 28 27 27 27 27
20 21 21 22 22 23 23 23 23 22 23 24 24 25 26 26 26 25 25 25 26 26 26 27 28 28 29 29 28 28 28 27 27 27 28 28 28 28 28 28 27 26 27
21 21 22 22 22 23 23 24 24 24 24 25 25 25 26 25 26 26 26 26 27 28 28 28 29 29 30 30 29 28 28 27 28 28 28 29 29 28 28 28 28 28 28
21 21 22 23 23 23 24 24 25 25 25 26 25 25 25 25 26 27 28 28 29 29 29 29 30 30 30 30 30 29 29 29 29 29 29 29 29 28 28 27 27 27 28
22 22 22 23 23 23 24 25 25 25 25 26 25 26 26 26 27 28 28 29 30 31 31 30 29 29 29 29 29 29 28 29 29 30 29 29 28 29 28 28 28 27 27
23 23 23 23 24 24 24 25 25 26 26 26 26 26 26 26 27 28 29 29 30 31 31 30 29 29 28 29 29 29 29 29 29 29 29 28 29 29 29 29 28 27 27
22 23 23 23 24 24 25 25 26 26 26 26 26 27 27 27 28 28 28 28 28 29 29 29 29 29 29 29 29 30 29 28 28 28 29 28 27 28 28 29 29 29 29
22 22 23 23 24 24 25 25 26 27 27 27 27 28 28 28 28 28 28 28 28 28 29 29 29 29 30 29 29 29 29 28 28 27 27 27 27 27 28 29 29 29 30
22 23 24 24 24 24 25 26 27 27 28 28 29 29 28 27 27 28 28 29 29 28 28 29 29 29 29 29 29 29 29 28 27 26 26 27 28 28 28 29 28 28 29
23 24 24 24 24 25 26 27 27 28 28 28 28 28 27 27 27 28 28 28 28 29 29 28 28 28 28 28 28 27 27 26 26 26 25 27 28 28 29 29 28 28 28
24 24 24 24 25 26 26 27 28 28 28 27 26 26 27 27 26 27 28 28 28 29 29 27 27 27 27 26 26 26 26 26 26 26 26 26 27 28 28 28 28 28 28
Wind_Direction
282 283 276 274 273 276 283 288 291 293 292 289 288 290 290 290 290 289 290 290 291 291 291 289 289 290 293 296 297 296 294 290 287 285 286 285 279 276 276 278 272 271 271
294 292 286 287 285 282 283 287 291 292 291 291 290 290 290 289 289 290 289 289 289 288 289 288 287 286 288 289 288 287 286 284 278 277 278 279 275 270 267 267 267 266 264
293 293 291 290 290 289 287 289 292 292 290 291 290 289 289 290 289 288 287 287 289 288 289 289 287 285 285 284 285 284 282 281 278 276 275 275 273 270 265 262 264 264 263
288 291 297 295 292 293 292 291 291 291 290 290 291 289 288 289 289 288 285 284 287 289 289 289 290 287 284 282 281 282 280 275 275 274 272 272 271 268 265 262 262 263 264
285 290 293 296 292 291 292 289 290 291 289 289 290 291 291 290 288 288 285 285 286 288 289 290 290 289 285 282 280 278 278 276 274 275 273 272 271 267 265 264 263 262 262
283 289 292 291 291 292 293 289 289 290 289 287 288 290 291 290 289 288 284 285 286 286 288 288 289 289 286 284 282 278 275 277 278 276 275 273 270 270 266 263 263 262 261
283 288 289 292 294 293 293 291 289 289 289 287 288 290 291 292 291 290 288 287 287 287 287 287 287 286 286 284 282 279 276 275 276 276 274 272 270 267 265 263 261 261 260
285 288 291 292 294 292 290 289 288 288 288 289 288 289 290 292 292 291 290 289 288 287 288 288 288 287 285 284 282 279 277 277 275 274 272 271 268 268 268 267 263 260 260
288 288 291 292 293 292 290 288 288 290 290 290 289 289 290 291 291 291 288 289 290 288 286 288 289 288 286 283 282 279 280 279 276 275 273 272 270 268 266 264 263 261 261
287 289 289 291 291 291 291 292 290 291 291 289 289 289 289 290 291 290 289 289 290 289 289 289 287 285 284 284 282 279 279 278 276 276 274 272 272 270 268 264 262 262 260
288 288 290 292 292 291 292 293 291 290 290 289 288 289 289 288 289 290 290 290 290 289 289 287 287 285 284 283 282 280 278 275 274 274 275 274 273 273 269 266 265 263 259
289 290 291 292 293 291 291 291 292 291 291 290 288 289 291 290 289 290 290 290 289 289 289 287 287 286 285 283 282 280 278 277 276 274 272 272 273 272 270 268 266 265 261
290 291 292 295 295 294 291 290 291 292 292 292 291 291 291 291 290 291 290 291 290 290 291 290 288 287 286 284 283 282 280 280 276 275 273 273 273 273 273 269 266 264 262
290 291 293 296 297 297 294 291 292 293 293 292 293 293 292 294 291 289 290 290 291 291 290 290 289 287 284 283 283 283 280 277 277 275 274 274 272 272 273 271 269 265 262
287 291 294 295 296 296 294 291 291 292 294 292 293 292 292 293 291 291 291 291 292 291 289 289 288 287 285 284 284 284 282 280 279 276 273 272 271 271 272 271 269 265 262
286 290 292 294 294 295 294 292 290 291 292 292 293 293 292 291 290 291 292 292 292 291 289 289 288 288 288 287 286 285 282 282 281 277 274 272 272 271 271 271 269 266 264
286 288 290 293 293 293 294 294 292 291 292 293 293 293 292 292 292 293 294 293 292 292 292 292 290 289 288 287 287 285 283 282 281 278 276 273 272 271 272 271 268 265 264
285 287 289 293 293 293 294 294 293 291 292 293 293 292 293 292 293 293 291 292 293 293 292 291 291 290 288 285 285 285 283 281 280 278 277 275 273 272 273 270 267 264 265
285 287 290 292 293 294 295 295 293 293 292 292 292 292 293 292 293 293 292 292 293 294 293 293 292 291 290 287 285 284 283 281 280 279 278 277 274 271 270 269 267 266 264
282 287 289 290 291 292 295 293 293 293 292 294 295 294 293 294 294 295 293 293 293 293 293 293 293 291 289 288 286 285 283 281 280 278 278 276 274 272 270 268 267 265 264
284 287 288 289 290 293 295 296 296 295 293 293 294 294 293 293 294 294 294 294 294 293 292 292 293 291 289 288 286 284 282 282 280 280 279 278 274 273 270 267 264 264 263
286 287 289 293 293 293 296 295 296 296 295 293 294 293 294 293 293 294 294 297 296 295 294 292 292 290 290 288 285 283 283 283 282 281 280 280 277 274 271 267 265 262 262
287 289 292 295 296 295 296 295 295 296 295 294 294 295 294 294 295 295 296 298 298 296 296 293 291 290 290 287 285 283 282 282 282 282 281 280 279 276 272 268 267 263 262
286 289 292 295 296 297 297 297 297 296 297 296 297 297 295 295 295 297 297 298 298 298 296 295 293 292 290 287 285 284 283 283 282 281 282 281 279 277 273 269 270 266 263
285 289 292 295 296 298 299 299 299 298 298 297 299 299 295 296 297 299 299 298 298 299 299 297 296 294 291 288 286 284 283 282 281 281 281 280 278 276 274 272 271 269 266
287 290 291 295 296 297 298 298 299 296 297 296 298 300 298 297 298 300 300 299 299 299 300 299 297 296 294 291 288 285 284 281 279 280 281 280 279 278 276 274 271 270 269
Height
5898 5898 5898 5898 5898 5898 5897 5897 5897 5896 5896 5896 5895 5895 5894 5893 5893 5892 5892 5891 5891 5890 5889 5889 5888 5888 5887 5887 5887 5886 5886 5885 5885 5885 5885 5884 5884 5884 5884 5884 5884 5884 5885
5898 5898 5897 5897 5897 5897 5897 5896 5896 5895 5895 5895 5894 5893 5893 5892 5891 5891 5890 5890 5889 5888 5888 5887 5887 5886 5886 5885 5885 5885 5885 5884 5884 5884 5883 5883 5883 5883 5883 5883 5883 5883 5883
5898 5897 5897 5897 5896 5896 5896 5896 5895 5894 5894 5893 5893 5892 5892 5891 5890 5889 5889 5888 5887 5887 5886 5886 5885 5885 5884 5884 5883 5883 5883 5883 5882 5882 5882 5882 5882 5881 5881 5881 5882 5882 5882
5897 5896 5896 5896 5895 5895 5895 5894 5893 5893 5892 5892 5891 5890 5890 5889 5888 5887 5887 5886 5885 5885 5884 5884 5883 5883 5882 5882 5881 5881 5881 5881 5880 5880 5880 5880 5880 5880 5879 5879 5880 5880 5880
5896 5895 5895 5894 5894 5893 5893 5892 5892 5891 5890 5890 5889 5888 5887 5886 5886 5885 5884 5884 5883 5882 5882 5881 5881 5880 5880 5880 5879 5879 5878 5878 5878 5878 5878 5878 5878 5878 5877 5878 5878 5878 5878
5894 5894 5893 5893 5892 5892 5891 5890 5890 5889 5888 5888 5887 5886 5885 5884 5883 5883 5882 5881 5880 5880 5879 5879 5878 5878 5877 5877 5876 5876 5876 5875 5875 5875 5875 5875 5875 5875 5875 5875 5875 5876 5876
5893 5892 5892 5891 5890 5890 5889 5888 5887 5886 5886 5885 5884 5884 5883 5882 5881 5880 5879 5879 5878 5877 5877 5876 5876 5875 5874 5874 5873 5873 5873 5872 5872 5872 5872 5872 5871 5872 5872 5872 5872 5873 5873
5891 5890 5889 5889 5888 5887 5887 5886 5885 5884 5883 5883 5882 5881 5880 5879 5878 5877 5876 5876 5875 5874 5874 5873 5872 5872 5871 5871 5870 5870 5869 5869 5869 5869 5869 5869 5869 5869 5869 5869 5869 5870 5870
5888 5888 5887 5887 5886 5885 5884 5883 5882 5882 5881 5880 5879 5878 5877 5876 5875 5874 5873 5872 5871 5871 5870 5869 5869 5868 5868 5867 5866 5866 5866 5865 5865 5865 5865 5865 5864 5865 5865 5865 5865 5866 5866
5886 5885 5885 5884 5883 5882 5881 5880 5879 5879 5877 5877 5876 5875 5874 5873 5871 5871 5870 5869 5868 5867 5866 5866 5865 5864 5863 5863 5862 5862 5862 5861 5861 5861 5861 5861 5861 5860 5861 5861 5862 5862 5863
5883 5883 5882 5881 5880 5879 5878 5877 5876 5875 5874 5873 5872 5871 5870 5869 5868 5867 5866 5865 5864 5863 5862 5861 5861 5860 5859 5858 5858 5857 5857 5857 5856 5856 5856 5855 5855 5855 5856 5856 5857 5858 5858
5880 5880 5879 5878 5877 5876 5875 5874 5873 5872 5870 5869 5868 5867 5866 5864 5863 5863 5862 5861 5859 5858 5857 5857 5856 5855 5854 5854 5853 5852 5852 5852 5851 5851 5851 5850 5850 5850 5850 5851 5852 5852 5853
5877 5876 5875 5875 5873 5872 5871 5870 5869 5868 5867 5864 5863 5863 5861 5859 5859 5858 5857 5856 5855 5854 5853 5852 5851 5850 5849 5848 5848 5847 5847 5846 5845 5845 5846 5845 5845 5845 5845 5846 5846 5847 5848
5874 5873 5872 5871 5870 5869 5867 5866 5865 5864 5863 5861 5860 5858 5857 5856 5855 5854 5852 5851 5850 5849 5848 5847 5846 5844 5843 5843 5842 5841 5841 5841 5839 5839 5840 5840 5839 5840 5840 5840 5841 5841 5842
5870 5869 5869 5868 5866 5865 5863 5862 5861 5860 5859 5857 5855 5854 5853 5852 5850 5849 5847 5846 5845 5843 5842 5841 5840 5839 5837 5836 5835 5834 5834 5834 5833 5832 5833 5833 5834 5834 5834 5834 5835 5835 5835
5866 5866 5865 5864 5862 5861 5860 5858 5857 5856 5854 5853 5852 5850 5848 5847 5845 5844 5842 5840 5839 5838 5836 5835 5833 5832 5830 5829 5828 5827 5827 5826 5826 5826 5825 5826 5826 5827 5827 5828 5828 5828 5828
5862 5862 5861 5860 5859 5857 5856 5854 5853 5851 5850 5849 5847 5846 5844 5842 5840 5839 5837 5835 5833 5832 5830 5829 5827 5825 5824 5822 5821 5820 5820 5819 5819 5818 5818 5818 5819 5819 5820 5820 5821 5821 5822
5858 5858 5857 5856 5854 5853 5851 5850 5849 5847 5845 5844 5842 5841 5839 5837 5835 5833 5832 5830 5828 5826 5824 5822 5821 5819 5817 5815 5814 5814 5813 5812 5812 5812 5811 5811 5811 5812 5812 5813 5814 5814 5815
5854 5854 5853 5852 5850 5849 5847 5846 5844 5842 5841 5839 5837 5835 5833 5831 5830 5828 5826 5824 5822 5820 5818 5816 5813 5812 5810 5808 5807 5807 5806 5806 5805 5805 5805 5804 5804 5804 5805 5806 5806 5807 5808
5851 5850 5848 5847 5846 5845 5843 5841 5840 5838 5836 5834 5832 5830 5828 5826 5824 5822 5820 5817 5815 5813 5811 5808 5806 5804 5803 5802 5800 5799 5799 5798 5798 5797 5797 5796 5796 5796 5797 5798 5799 5800 5801
5846 5845 5844 5843 5841 5840 5838 5837 5835 5833 5831 5829 5827 5825 5823 5820 5818 5816 5813 5811 5808 5806 5804 5801 5799 5797 5796 5794 5793 5792 5791 5790 5790 5789 5789 5789 5789 5789 5789 5790 5791 5792 5794
5841 5840 5839 5838 5836 5835 5833 5832 5830 5827 5825 5823 5821 5819 5817 5814 5812 5809 5807 5804 5802 5799 5797 5795 5793 5790 5788 5787 5785 5784 5784 5784 5783 5782 5782 5782 5781 5781 5782 5782 5783 5785 5786
5836 5836 5835 5833 5831 5830 5828 5826 5824 5822 5820 5817 5815 5813 5810 5808 5805 5803 5801 5798 5795 5793 5790 5788 5786 5783 5781 5780 5778 5777 5776 5776 5776 5775 5775 5774 5774 5774 5774 5775 5776 5776 5777
5832 5831 5830 5828 5827 5825 5823 5821 5818 5816 5814 5811 5809 5807 5804 5801 5799 5797 5794 5792 5789 5786 5784 5781 5778 5776 5774 5772 5771 5770 5769 5768 5768 5768 5768 5767 5766 5766 5767 5767 5768 5769 5769
5827 5827 5825 5824 5822 5820 5817 5815 5812 5809 5807 5805 5803 5800 5798 5795 5793 5791 5788 5786 5783 5780 5777 5774 5771 5769 5767 5765 5764 5763 5762 5761 5761 5761 5761 5760 5759 5759 5759 5759 5760 5761 5762
5823 5821 5820 5819 5817 5815 5812 5809 5805 5803 5801 5799 5797 5794 5792 5789 5787 5784 5782 5779 5776 5774 5771 5768 5765 5762 5760 5758 5757 5756 5755 5754 5754 5753 5753 5753 5752 5752 5751 5752 5752 5753 5754